ONEWEB-0011 (44062 NORAD) Tracking and Keplerian Element Data

This shows tracking and keplerian element data for the satellite.

Feedback or suggestion? Click here.




ElementValue
Catalog44062
NameONEWEB-0011
Epoch Orbit25422
Epoch Day159.95960666
Epoch Year2024
RAAN46.2967
Inclination87.9048
Eccentricity0.0002027
Argument of Perigee74.9692
Mean Anonmoly285.1663
Mean Motion13.15546847
Decay Rate-1.8E-07
L11 44062U 19010F 24159.95960666 -.00000018 00000+0 -81695-4 0 9998
L22 44062 87.9048 46.2967 0002027 74.9692 285.1663 13.15546847254226



Live tracking and technical data element details for ONEWEB-0011 (NORAD 44062). ONEWEB-0011 can be tracked NOW for your location showing map with azimuth and elevation plus other details from your city location.







IsCatalogInMostPopularTable: catalog: 44062, numindb: 1231
Update: records affected: 1



GetName: 44062 ONEWEB-0011

Hit Count: updated at: Tue, 17 Sep 2024 11:48:43 GMT